| time (UTC) | temp F | wind direction | speed knots | gust knots | rain 1hr in | rain 24hr in | rain mn in | humidity % | barometer mb |
| 20260504184516 | 73 | 225 | 5.2 | 10.4 | 0.00 | 0.00 | 0.00 | 33 | 1010.8 |
| 20260504184016 | 72 | 225 | 5.2 | 13.0 | 0.00 | 0.00 | 0.00 | 34 | 1010.9 |
| 20260504183537 | 72 | 225 | 5.2 | 12.2 | 0.00 | 0.00 | 0.00 | 35 | 1010.9 |
| 20260504183016 | 73 | 225 | 6.1 | 11.3 | 0.00 | 0.00 | 0.00 | 34 | 1010.8 |
| 20260504182517 | 73 | 225 | 6.1 | 12.2 | 0.00 | 0.00 | 0.00 | 34 | 1011.0 |
| 20260504182016 | 73 | 225 | 4.3 | 11.3 | 0.00 | 0.00 | 0.00 | 36 | 1011.0 |
| 20260504181516 | 73 | 225 | 5.2 | 12.2 | 0.00 | 0.00 | 0.00 | 34 | 1011.1 |
| 20260504181017 | 72 | 225 | 6.1 | 15.6 | 0.00 | 0.00 | 0.00 | 36 | 1011.0 |
| 20260504180516 | 72 | 225 | 6.1 | 11.3 | 0.00 | 0.00 | 0.00 | 35 | 1011.1 |
| 20260504180016 | 72 | 203 | 7.0 | 13.9 | 0.00 | 0.00 | 0.00 | 35 | 1011.3 |
| 20260504175516 | 72 | 225 | 6.1 | 11.3 | 0.00 | 0.00 | 0.00 | 34 | 1011.3 |
| 20260504175016 | 72 | 225 | 6.1 | 13.0 | 0.00 | 0.00 | 0.00 | 35 | 1011.4 |
| 20260504174517 | 72 | 225 | 4.3 | 13.9 | 0.00 | 0.00 | 0.00 | 36 | 1011.4 |
| 20260504174017 | 72 | 225 | 4.3 | 13.9 | 0.00 | 0.00 | 0.00 | 36 | 1011.5 |
| 20260504173516 | 72 | 225 | 5.2 | 13.9 | 0.00 | 0.00 | 0.00 | 35 | 1011.5 |
| 20260504173016 | 71 | 225 | 4.3 | 10.4 | 0.00 | 0.00 | 0.00 | 36 | 1011.5 |
| 20260504172516 | 70 | 225 | 7.8 | 14.8 | 0.00 | 0.00 | 0.00 | 35 | 1011.5 |
| 20260504172037 | 71 | 225 | 6.1 | 15.6 | 0.00 | 0.00 | 0.00 | 36 | 1011.6 |
| 20260504171557 | 71 | 225 | 7.0 | 13.0 | 0.00 | 0.00 | 0.00 | 36 | 1011.7 |
| 20260504171016 | 70 | 225 | 7.8 | 15.6 | 0.00 | 0.00 | 0.00 | 36 | 1011.7 |
| 20260504170535 | 70 | 203 | 5.2 | 10.4 | 0.00 | 0.00 | 0.00 | 37 | 1011.8 |
| 20260504151016 | 67 | 225 | 7.0 | 13.9 | 0.00 | 0.00 | 0.00 | 39 | 1013.4 |
| 20260504150517 | 67 | 225 | 4.3 | 12.2 | 0.00 | 0.00 | 0.00 | 40 | 1013.4 |
| 20260504141015 | 63 | 225 | 7.0 | 14.8 | 0.00 | 0.00 | 0.00 | 47 | 1013.6 |
| 20260504140537 | 63 | 203 | 6.1 | 11.3 | 0.00 | 0.00 | 0.00 | 47 | 1013.5 |
| 20260504130535 | 60 | 203 | 4.3 | 11.3 | 0.00 | 0.00 | 0.00 | 55 | 1014.1 |
| 20260504110518 | 52 | 225 | 4.3 | 12.2 | 0.00 | 0.00 | 0.00 | 64 | 1014.3 |
| 20260504100517 | 51 | 225 | 4.3 | 8.7 | 0.00 | 0.00 | 0.00 | 59 | 1014.3 |
| 20260504081517 | 53 | 203 | 1.7 | 7.0 | 0.00 | 0.00 | 0.00 | 49 | 1013.9 |
| 20260504081017 | 53 | 203 | 2.6 | 4.3 | 0.00 | 0.00 | 0.00 | 49 | 1013.9 |
| 20260504080518 | 53 | 225 | 3.5 | 7.8 | 0.00 | 0.00 | 0.00 | 48 | 1013.8 |
| 20260504050537 | 54 | 225 | 3.5 | 7.0 | 0.00 | 0.00 | 0.00 | 46 | 1013.2 |
| 20260504050018 | 54 | 225 | 4.3 | 8.7 | 0.00 | 0.00 | 0.00 | 46 | 1013.2 |
| 20260504045517 | 54 | 248 | 4.3 | 10.4 | 0.00 | 0.00 | 0.00 | 46 | 1013.1 |
| 20260504045018 | 54 | 225 | 3.5 | 7.8 | 0.00 | 0.00 | 0.00 | 46 | 1013.1 |
| 20260504044517 | 54 | 248 | 4.3 | 8.7 | 0.00 | 0.00 | 0.00 | 46 | 1013.1 |
| 20260504044018 | 54 | 225 | 4.3 | 9.6 | 0.00 | 0.00 | 0.00 | 45 | 1013.1 |
| 20260504043517 | 54 | 225 | 2.6 | 7.8 | 0.00 | 0.00 | 0.00 | 45 | 1013.0 |
| 20260504043017 | 54 | 225 | 3.5 | 7.8 | 0.00 | 0.00 | 0.00 | 45 | 1013.0 |
| 20260504042517 | 55 | 248 | 4.3 | 8.7 | 0.00 | 0.00 | 0.00 | 45 | 1012.9 |
| 20260504042056 | 55 | 225 | 4.3 | 7.8 | 0.00 | 0.00 | 0.00 | 45 | 1013.0 |
| 20260504041516 | 55 | 225 | 3.5 | 7.0 | 0.00 | 0.00 | 0.00 | 44 | 1013.0 |
| 20260504041017 | 55 | 248 | 4.3 | 7.8 | 0.00 | 0.00 | 0.00 | 44 | 1012.9 |
| 20260504040517 | 55 | 225 | 3.5 | 9.6 | 0.00 | 0.00 | 0.00 | 44 | 1012.9 |
| 20260504040016 | 55 | 248 | 3.5 | 8.7 | 0.00 | 0.00 | 0.00 | 44 | 1012.9 |
| 20260504035518 | 55 | 225 | 3.5 | 8.7 | 0.00 | 0.00 | 0.00 | 44 | 1012.9 |
| 20260504035017 | 55 | 248 | 3.5 | 8.7 | 0.00 | 0.00 | 0.00 | 44 | 1012.8 |
| 20260504034517 | 55 | 248 | 3.5 | 7.0 | 0.00 | 0.00 | 0.00 | 44 | 1012.8 |
| 20260504034038 | 55 | 225 | 3.5 | 7.0 | 0.00 | 0.00 | 0.00 | 43 | 1012.8 |
| 20260504033517 | 55 | 225 | 4.3 | 8.7 | 0.00 | 0.00 | 0.00 | 43 | 1012.9 |
| 20260504033017 | 55 | 248 | 4.3 | 8.7 | 0.00 | 0.00 | 0.00 | 43 | 1012.8 |
| 20260504032517 | 56 | 248 | 3.5 | 7.8 | 0.00 | 0.00 | 0.00 | 42 | 1012.7 |
| 20260504032017 | 56 | 248 | 4.3 | 8.7 | 0.00 | 0.00 | 0.00 | 42 | 1012.7 |
| 20260504031518 | 56 | 225 | 2.6 | 5.2 | 0.00 | 0.00 | 0.00 | 42 | 1012.6 |
| 20260504031017 | 56 | 225 | 2.6 | 7.0 | 0.00 | 0.00 | 0.00 | 41 | 1012.6 |
| 20260504030517 | 56 | 248 | 3.5 | 7.8 | 0.00 | 0.00 | 0.00 | 41 | 1012.7 |
| 20260504030017 | 56 | 248 | 3.5 | 10.4 | 0.00 | 0.00 | 0.00 | 41 | 1012.6 |
| 20260504025517 | 56 | 248 | 4.3 | 9.6 | 0.00 | 0.00 | 0.00 | 41 | 1012.6 |
| 20260504025038 | 56 | 248 | 4.3 | 8.7 | 0.00 | 0.00 | 0.00 | 41 | 1012.6 |
| 20260504024537 | 56 | 225 | 3.5 | 8.7 | 0.00 | 0.00 | 0.00 | 40 | 1012.7 |
| 20260504024017 | 56 | 225 | 4.3 | 8.7 | 0.00 | 0.00 | 0.00 | 40 | 1012.6 |
| 20260504023517 | 56 | 225 | 2.6 | 7.0 | 0.00 | 0.00 | 0.00 | 40 | 1012.7 |
| 20260504023037 | 56 | 225 | 3.5 | 7.0 | 0.00 | 0.00 | 0.00 | 40 | 1012.6 |
| 20260504022517 | 57 | 225 | 2.6 | 7.8 | 0.00 | 0.00 | 0.00 | 39 | 1012.7 |
| 20260504022037 | 57 | 225 | 1.7 | 5.2 | 0.00 | 0.00 | 0.00 | 39 | 1012.7 |
| 20260504021517 | 57 | 225 | 2.6 | 7.0 | 0.00 | 0.00 | 0.00 | 38 | 1012.7 |
| 20260504021017 | 57 | 248 | 3.5 | 9.6 | 0.00 | 0.00 | 0.00 | 38 | 1012.7 |
| 20260504020517 | 57 | 225 | 4.3 | 10.4 | 0.00 | 0.00 | 0.00 | 38 | 1012.7 |
| 20260504020017 | 57 | 225 | 3.5 | 7.8 | 0.00 | 0.00 | 0.00 | 38 | 1012.7 |
| 20260504015518 | 57 | 225 | 2.6 | 7.0 | 0.00 | 0.00 | 0.00 | 38 | 1012.7 |
| 20260504015017 | 58 | 225 | 2.6 | 7.8 | 0.00 | 0.00 | 0.00 | 37 | 1012.7 |
| 20260504014517 | 58 | 225 | 2.6 | 7.0 | 0.00 | 0.00 | 0.00 | 36 | 1012.6 |
| 20260504014017 | 58 | 225 | 2.6 | 7.0 | 0.00 | 0.00 | 0.00 | 36 | 1012.5 |
| 20260504013518 | 58 | 248 | 2.6 | 7.0 | 0.00 | 0.00 | 0.00 | 36 | 1012.4 |
| 20260504013037 | 58 | 248 | 3.5 | 7.0 | 0.00 | 0.00 | 0.00 | 36 | 1012.4 |
| 20260504012518 | 58 | 248 | 2.6 | 5.2 | 0.00 | 0.00 | 0.00 | 36 | 1012.3 |
| 20260504012017 | 58 | 248 | 3.5 | 7.0 | 0.00 | 0.00 | 0.00 | 35 | 1012.3 |
| 20260504011558 | 58 | 248 | 2.6 | 4.3 | 0.00 | 0.00 | 0.00 | 35 | 1012.2 |
| 20260504011038 | 58 | 248 | 2.6 | 5.2 | 0.00 | 0.00 | 0.00 | 35 | 1012.1 |
| 20260504010517 | 58 | 248 | 1.7 | 4.3 | 0.00 | 0.00 | 0.00 | 35 | 1012.1 |
| 20260504010018 | 59 | 248 | 3.5 | 7.0 | 0.00 | 0.00 | 0.00 | 34 | 1012.0 |
| 20260504005517 | 59 | 248 | 2.6 | 5.2 | 0.00 | 0.00 | 0.00 | 34 | 1012.0 |
| 20260504005016 | 59 | 225 | 1.7 | 6.1 | 0.00 | 0.00 | 0.00 | 33 | 1011.9 |
| 20260504004517 | 59 | 248 | 1.7 | 7.0 | 0.00 | 0.00 | 0.00 | 33 | 1011.9 |
| 20260504004018 | 59 | 248 | 1.7 | 5.2 | 0.00 | 0.00 | 0.00 | 33 | 1011.8 |
| 20260504003517 | 59 | 248 | 2.6 | 5.2 | 0.00 | 0.00 | 0.00 | 33 | 1011.7 |
| 20260504003017 | 59 | 248 | 2.6 | 6.1 | 0.00 | 0.00 | 0.00 | 33 | 1011.6 |
| 20260504002517 | 59 | 248 | 2.6 | 6.1 | 0.00 | 0.00 | 0.00 | 33 | 1011.6 |
| 20260504002017 | 59 | 248 | 2.6 | 6.1 | 0.00 | 0.00 | 0.00 | 32 | 1011.5 |
| 20260504001517 | 60 | 225 | 2.6 | 7.8 | 0.00 | 0.00 | 0.00 | 32 | 1011.4 |
| 20260504001017 | 60 | 248 | 2.6 | 6.1 | 0.00 | 0.00 | 0.00 | 32 | 1011.3 |
| 20260504000516 | 60 | 270 | 1.7 | 5.2 | 0.00 | 0.00 | 0.00 | 31 | 1011.2 |
| 20260504000017 | 60 | 248 | 4.3 | 7.8 | 0.00 | 0.00 | 0.00 | 31 | 1011.2 |
| 20260503235516 | 60 | 270 | 3.5 | 8.7 | 0.00 | 0.00 | 0.00 | 31 | 1011.2 |
| 20260503235017 | 61 | 270 | 4.3 | 9.6 | 0.00 | 0.00 | 0.00 | 30 | 1011.2 |
| 20260503234517 | 61 | 248 | 3.5 | 8.7 | 0.00 | 0.00 | 0.00 | 30 | 1011.0 |
| 20260503234017 | 61 | 270 | 3.5 | 8.7 | 0.00 | 0.00 | 0.00 | 30 | 1011.0 |
| 20260503233517 | 61 | 270 | 2.6 | 6.1 | 0.00 | 0.00 | 0.00 | 31 | 1010.9 |
| 20260503233017 | 61 | 270 | 3.5 | 8.7 | 0.00 | 0.00 | 0.00 | 31 | 1010.9 |
| 20260503232518 | 61 | 315 | 4.3 | 8.7 | 0.00 | 0.00 | 0.00 | 29 | 1010.8 |
| 20260503232016 | 61 | 293 | 2.6 | 8.7 | 0.00 | 0.00 | 0.00 | 29 | 1010.8 |
| 20260503231516 | 62 | 270 | 2.6 | 7.0 | 0.00 | 0.00 | 0.00 | 29 | 1010.7 |
| 20260503231016 | 62 | 315 | 3.5 | 9.6 | 0.00 | 0.00 | 0.00 | 29 | 1010.7 |
| 20260503230517 | 62 | 315 | 3.5 | 9.6 | 0.00 | 0.00 | 0.00 | 30 | 1010.6 |
| 20260503230016 | 62 | 338 | 2.6 | 5.2 | 0.00 | 0.00 | 0.00 | 30 | 1010.7 |
| 20260503225539 | 62 | 270 | 2.6 | 6.1 | 0.00 | 0.00 | 0.00 | 29 | 1010.7 |
| 20260503225018 | 62 | 315 | 4.3 | 12.2 | 0.00 | 0.00 | 0.00 | 28 | 1010.6 |
| 20260503224517 | 62 | 315 | 4.3 | 11.3 | 0.00 | 0.00 | 0.00 | 27 | 1010.6 |
| 20260503224017 | 62 | 293 | 5.2 | 9.6 | 0.00 | 0.00 | 0.00 | 27 | 1010.6 |
| 20260503223518 | 62 | 0 | 5.2 | 10.4 | 0.00 | 0.00 | 0.00 | 27 | 1010.6 |
| 20260503223018 | 62 | 293 | 5.2 | 9.6 | 0.00 | 0.00 | 0.00 | 27 | 1010.5 |
| 20260503222517 | 62 | 338 | 6.1 | 13.9 | 0.00 | 0.00 | 0.00 | 26 | 1010.5 |
| 20260503222016 | 62 | 338 | 4.3 | 11.3 | 0.00 | 0.00 | 0.00 | 27 | 1010.4 |
| 20260503221516 | 62 | 293 | 4.3 | 11.3 | 0.00 | 0.00 | 0.00 | 27 | 1010.5 |
| 20260503221036 | 62 | 315 | 6.1 | 13.0 | 0.00 | 0.00 | 0.00 | 26 | 1010.4 |
| 20260503220516 | 62 | 315 | 5.2 | 11.3 | 0.00 | 0.00 | 0.00 | 26 | 1010.5 |
| 20260503220017 | 62 | 270 | 6.1 | 13.9 | 0.00 | 0.00 | 0.00 | 26 | 1010.6 |
| 20260503215517 | 62 | 270 | 6.1 | 19.1 | 0.00 | 0.00 | 0.00 | 26 | 1010.6 |
| 20260503215036 | 62 | 293 | 6.1 | 9.6 | 0.00 | 0.00 | 0.00 | 27 | 1010.6 |
| 20260503214516 | 62 | 270 | 7.0 | 17.4 | 0.00 | 0.00 | 0.00 | 28 | 1010.6 |
| 20260503214017 | 62 | 270 | 7.0 | 15.6 | 0.00 | 0.00 | 0.00 | 27 | 1010.5 |
| 20260503213516 | 62 | 315 | 6.1 | 13.0 | 0.00 | 0.00 | 0.00 | 26 | 1010.6 |
| 20260503213037 | 62 | 315 | 6.1 | 14.8 | 0.00 | 0.00 | 0.00 | 27 | 1010.5 |
| 20260503212517 | 62 | 315 | 7.0 | 13.0 | 0.00 | 0.00 | 0.00 | 27 | 1010.6 |
| 20260503212016 | 62 | 338 | 6.1 | 11.3 | 0.00 | 0.00 | 0.00 | 27 | 1010.5 |
| 20260503211516 | 62 | 338 | 7.0 | 17.4 | 0.00 | 0.00 | 0.00 | 27 | 1010.5 |
| 20260503211036 | 62 | 270 | 6.1 | 13.9 | 0.00 | 0.00 | 0.00 | 28 | 1010.5 |
| 20260503210518 | 62 | 270 | 7.8 | 15.6 | 0.00 | 0.00 | 0.00 | 27 | 1010.5 |
| 20260503210016 | 62 | 315 | 6.1 | 14.8 | 0.00 | 0.00 | 0.00 | 28 | 1010.4 |
| 20260503205516 | 62 | 315 | 7.0 | 12.2 | 0.00 | 0.00 | 0.00 | 27 | 1010.4 |
| 20260503205018 | 62 | 315 | 6.1 | 15.6 | 0.00 | 0.00 | 0.00 | 28 | 1010.4 |
| 20260503204516 | 61 | 315 | 7.0 | 15.6 | 0.00 | 0.00 | 0.00 | 27 | 1010.4 |
| 20260503204016 | 61 | 270 | 8.7 | 21.7 | 0.00 | 0.00 | 0.00 | 27 | 1010.4 |
| 20260503203517 | 62 | 315 | 6.1 | 14.8 | 0.00 | 0.00 | 0.00 | 28 | 1010.4 |
| 20260503203018 | 62 | 315 | 7.0 | 13.9 | 0.00 | 0.00 | 0.00 | 27 | 1010.4 |
| 20260503202538 | 62 | 270 | 7.8 | 17.4 | 0.00 | 0.00 | 0.00 | 29 | 1010.5 |
| 20260503202016 | 62 | 270 | 7.0 | 15.6 | 0.00 | 0.00 | 0.00 | 27 | 1010.5 |
| 20260503201537 | 62 | 270 | 7.0 | 13.9 | 0.00 | 0.00 | 0.00 | 27 | 1010.6 |
| 20260503201017 | 62 | 315 | 5.2 | 14.8 | 0.00 | 0.00 | 0.00 | 29 | 1010.6 |
| 20260503200517 | 61 | 315 | 5.2 | 12.2 | 0.00 | 0.00 | 0.00 | 28 | 1010.6 |
| 20260503200016 | 61 | 338 | 6.1 | 10.4 | 0.00 | 0.00 | 0.00 | 28 | 1010.7 |
| 20260503195538 | 61 | 270 | 8.7 | 15.6 | 0.00 | 0.00 | 0.00 | 28 | 1010.8 |
| 20260503195017 | 61 | 270 | 7.0 | 16.5 | 0.00 | 0.00 | 0.00 | 28 | 1010.7 |
| 20260503194537 | 61 | 270 | 7.8 | 18.2 | 0.00 | 0.00 | 0.00 | 29 | 1010.8 |
| 20260503194016 | 61 | 315 | 6.1 | 13.0 | 0.00 | 0.00 | 0.00 | 30 | 1010.8 |
| 20260503193516 | 61 | 293 | 7.0 | 13.9 | 0.00 | 0.00 | 0.00 | 29 | 1010.8 |
| 20260503193059 | 61 | 315 | 5.2 | 12.2 | 0.00 | 0.00 | 0.00 | 29 | 1010.9 |
| 20260503192517 | 61 | 315 | 7.0 | 14.8 | 0.00 | 0.00 | 0.00 | 31 | 1010.9 |
| 20260503192016 | 60 | 315 | 7.0 | 13.9 | 0.00 | 0.00 | 0.00 | 30 | 1011.0 |
| 20260503191516 | 60 | 338 | 5.2 | 10.4 | 0.00 | 0.00 | 0.00 | 30 | 1011.0 |
| 20260503191016 | 59 | 315 | 6.1 | 13.0 | 0.00 | 0.00 | 0.00 | 31 | 1011.1 |
| 20260503190516 | 60 | 270 | 7.0 | 16.5 | 0.00 | 0.00 | 0.00 | 30 | 1011.1 |
| 20260503190017 | 59 | 315 | 6.1 | 12.2 | 0.00 | 0.00 | 0.00 | 32 | 1011.1 |
| 20260503185516 | 59 | 338 | 5.2 | 11.3 | 0.00 | 0.00 | 0.00 | 31 | 1011.1 |
| 20260503185037 | 58 | 270 | 7.8 | 20.0 | 0.00 | 0.00 | 0.00 | 32 | 1011.4 |